This is the latest recevied weather packets stored in our database for station/object KF0TNT. If no packets are shown the sender has not sent any weather packets the latest 1 day(s).
| Time | Temp. | Humidity | Pressure | Rain* | Wind** | Luminosity | Snow |
|---|---|---|---|---|---|---|---|
| 1777962666 | 5.56° C | 91% | 1014.6 hPa | 0 mm | 0.45 m/s, 332° | 0 W/m² | - |
| 1777962363 | 5.56° C | 91% | 1014.6 hPa | 0.51 mm | 0.45 m/s, 328° | 0 W/m² | - |
| 1777962060 | 5.56° C | 90% | 1014.4 hPa | 0.51 mm | 0 m/s | 0 W/m² | - |
| 1777961757 | 6.11° C | 90% | 1014.4 hPa | 0 mm | 0.89 m/s, 314° | 0 W/m² | - |
| 1777961455 | 6.11° C | 89% | 1014.6 hPa | 0.51 mm | 0.89 m/s, 3° | 0 W/m² | - |
| 1777961153 | 6.11° C | 89% | 1014.5 hPa | 1.27 mm | 0 m/s | 0 W/m² | - |
| 1777960849 | 6.11° C | 87% | 1014.6 hPa | 0.51 mm | 0.89 m/s, 42° | 0 W/m² | - |
| 1777960544 | 6.11° C | 87% | 1014.9 hPa | 0 mm | 0 m/s | 0 W/m² | - |
| 1777960241 | 6.11° C | 87% | 1014.9 hPa | 0 mm | 0 m/s | 0 W/m² | - |
| 1777959939 | 6.11° C | 86% | 1015.1 hPa | 0 mm | 0.89 m/s, 26° | 0 W/m² | - |
| 1777959637 | 6.11° C | 86% | 1014.6 hPa | 0 mm | 0 m/s | 0 W/m² | - |
| 1777959334 | 6.11° C | 86% | 1014.9 hPa | 0 mm | 0.89 m/s, 9° | 0 W/m² | - |
| 1777959030 | 6.11° C | 86% | 1014.6 hPa | 0 mm | 1.79 m/s, 20° | 0 W/m² | - |
| 1777958727 | 6.11° C | 86% | 1014.9 hPa | 0.51 mm | 0 m/s | 0 W/m² | - |
| 1777958425 | 6.11° C | 86% | 1014.6 hPa | 0.51 mm | 0.89 m/s, 127° | 0 W/m² | - |
| 1777958121 | 6.11° C | 87% | 1014.6 hPa | 0 mm | 1.34 m/s, 346° | 0 W/m² | - |
| 1777957820 | 6.11° C | 87% | 1014.6 hPa | 0.51 mm | 1.34 m/s, 344° | 0 W/m² | - |
| 1777957518 | 6.11° C | 87% | 1014.5 hPa | 0.51 mm | 1.79 m/s, 314° | 0 W/m² | - |
| 1777957215 | 6.11° C | 86% | 1014.8 hPa | 0 mm | 1.79 m/s, 18° | 0 W/m² | - |
| 1777956911 | 6.11° C | 87% | 1014.3 hPa | 0 mm | 1.79 m/s, 0° | 0 W/m² | - |
| 1777956608 | 6.11° C | 87% | 1014.6 hPa | 0 mm | 1.34 m/s, 16° | 0 W/m² | - |
| 1777956306 | 6.11° C | 87% | 1014.4 hPa | 0 mm | 0.89 m/s, 344° | 0 W/m² | - |
| 1777956002 | 6.11° C | 87% | 1014.6 hPa | 0 mm | 1.34 m/s, 334° | 0 W/m² | - |
| 1777955698 | 6.11° C | 86% | 1014.5 hPa | 0 mm | 1.79 m/s, 334° | 0 W/m² | - |
| 1777955395 | 6.11° C | 85% | 1014.6 hPa | 0 mm | 0.89 m/s, 317° | 0 W/m² | - |
* Rain latest hour (hover to see other rain measurements)
** Current wind speed in m/s (hover to see current wind gust speed)